Regional Weather Roundup
Issued by NWS

Home | Current Version | Previous Version | Text Only | Print | Product List | Glossary Off
Versions: 1 2 3 4 5 6 7 8 9 10 11 12 13 14 15 16 17 18 19 20 21 22 23 24 25 26 27 28 29 30 31 32 33 34 35 36 37 38 39 40 41 42 43 44 45 46 47 48 49 50

000
ASUS43 KLOT 271004
RWRIL

ILLINOIS REGIONAL WEATHER ROUNDUP
NATIONAL WEATHER SERVICE CHICAGO/ROMEOVILLE IL
500 AM CDT FRI MAY 27 2016

NOTE: "FAIR" INDICATES FEW OR NO CLOUDS BELOW 12,000 FEET WITH NO
SIGNIFICANT WEATHER AND/OR OBSTRUCTIONS TO VISIBILITY.

* THESE STATIONS ARE NOT UNDER NWS QUALITY CONTROL. THEY ALSO MAY NOT
  REPORT WEATHER SUCH AS PRECIPITATION OR FOG.

ILZ001-002-007-009-015-016-024-271100-
NORTHWEST ILLINOIS

CITY           SKY/WX    TMP DP  RH WIND       PRES   REMARKS
MOLINE         CLOUDY    64  61  90 CALM      29.80F
STERLING*      LGT RAIN  65  61  87 NW12      29.83F
$$

ILZ003-004-008-010-011-017-018-271100-
NORTH CENTRAL ILLINOIS

CITY           SKY/WX    TMP DP  RH WIND       PRES   REMARKS
ROCKFORD       CLOUDY    72  67  84 W8        29.85F
FREEPORT*      MOCLDY    64  60  87 SW10G17   29.89F
ROCHELLE*      CLOUDY    69  64  85 W13       29.88R
$$

ILZ005-006-012>014-019>023-271100-
NORTHEAST ILLINOIS

CITY           SKY/WX    TMP DP  RH WIND       PRES   REMARKS
CHICAGO-OHARE  CLOUDY    68  64  87 S8        29.90R
CHICAGO-MIDWAY CLOUDY    69  63  81 S9        29.90S
AURORA         MOCLDY    68  65  90 SE3       29.89S
LANSING*       CLOUDY    65  62  91 S5        29.92R
WAUKEGAN       CLOUDY    69  67  93 SW7       29.87F
DUPAGE AIRPORT CLOUDY    67  63  87 S6        29.89S
WHEELING       MOCLDY    69  65  86 S5        29.89F
NORTHERLY ISL    N/A     69  63  81 S8          N/A
NORTHERLY ISL    N/A     69  63  81 S8          N/A
$$

LMZ740>746-271100-
SOUTHERN LAKE MICHIGAN

STATION/POSITION SKY/WX   TEMP    WIND        PRES    VSBY  WAVE
                          AIR SEA DIR/SP/G                  HT/PER
                          (F)     (DEG/KT/KT) (MB)    (MI)  (FT/S)
SOUTHERN BUOY              55 50  170/ 10/ 12 1011.7          1
WILMETTE HARBOR            65 58  230/  8/ 10   N/A           1/ 3
HARRISON CRIB              69     200/ 12/ 14   N/A
BURNHAM HARBOR             69     200/  7/  8   N/A
CALUMET HARBOR             68     200/  9/ 13 1011.9F
BURNS HARBOR               67     180/  6/ 11 1013.5S
MICHIGAN CITY              67     150/  8/ 10   N/A
MICHIGAN CITY 6N           63 59  190/  8/ 10   N/A           1
ST. JOSEPH                 64 61  170/  6/  8   N/A           1
$$

ILZ025>027-034>036-040-047-049-050-058-095>099-271100-
WEST-CENTRAL ILLINOIS

CITY           SKY/WX    TMP DP  RH WIND       PRES   REMARKS
QUINCY         CLOUDY    65  62  90 SE9       29.84S
MACOMB*        CLOUDY    64  63  97 SE9       29.88R
PITTSFIELD*    PTCLDY    65  65  97 CALM      29.87F
$$

ILZ028>032-037-038-041>044-048-051>054-059>061-271100-
CENTRAL ILLINOIS

CITY           SKY/WX    TMP DP  RH WIND       PRES   REMARKS
BLOOMINGTON    CLOUDY    67  67 100 S7        29.92S
DECATUR        CLOUDY    67  63  87 SE6       29.91F
PEORIA         CLOUDY    67  61  81 CALM      29.87F
SPRINGFIELD    CLOUDY    68  65  90 S7        29.88F
TAYLORVILLE    NOT AVBL
$$

ILZ033-039-045-046-055>057-062-063-271100-
EAST-CENTRAL ILLINOIS

CITY           SKY/WX    TMP DP  RH WIND       PRES   REMARKS
CHAMPAIGN      CLOUDY    65  62  90 SE10      29.93F
MATTOON        CLOUDY    66  62  87 S7        29.93F
$$

ILZ079-100>102-271100-
SOUTHWEST ILLINOIS

CITY           SKY/WX    TMP DP  RH WIND       PRES   REMARKS
BELLEVILLE     LGT RAIN  66  66 100 VRB1      29.91R
CAHOKIA*       LGT RAIN  68  65  90 S5        29.91R FOG
SPARTA*        HVY RAIN  66  65  94 S3        29.93S
$$

ILZ064>066-069>071-074>076-080>082-084>086-088>090-092>094-271100-
SOUTH-CENTRAL ILLINOIS

CITY           SKY/WX    TMP DP  RH WIND       PRES   REMARKS
CARBONDALE     LGT RAIN  66  63  90 CALM      29.93R
MT. VERNON     CLOUDY    64  59  82 CALM      29.96R
SALEM*         CLOUDY    67  64  89 SE5       29.94R
$$

ILZ067-068-072-073-078-083-087-091-271100-
SOUTHEAST ILLINOIS

CITY           SKY/WX    TMP DP  RH WIND       PRES   REMARKS
LAWRENCEVILLE  CLOUDY    66  64  93 SE5       29.97R
FLORA*         CLOUDY    66  64  93 E3        29.95S
HARRISBURG*    CLOUDY    65  65  97 E3        29.94R
ROBINSON*      CLOUDY    64  63  96 SE3       29.98R
$$

ABBREVIATIONS USED IN REMARKS
   TC - TEMPERATURE IN CELSIUS
  WCI - WIND CHILL INDEX
   HX - HEAT INDEX
  VSB - VISIBILITY
$$





USA.gov is the U.S. government's official web portal to all federal, state and local government web resources and services.